Location: Asheville, NC
(35.6000°N, 82.5500°W)
Time: 16:14:11
(UTC-05:00)

Vanguard 1 - Pass Details

Date: 09 December 2017
Orbit: 649 x 3834 km, 34.3° (Epoch: 16 January)

Event Time Altitude Azimuth Distance (km) Brightness Sun altitude
Rises 11:15:07 0° 246° (WSW) 7,741 14.7 29.4°
Reaches altitude 10° 11:20:51 10° 245° (WSW) 6,438 14.4 29.7°
Maximum altitude 11:39:43 74° 166° (SSE) 2,356 12.9 30.6°
Drops below altitude 10° 11:49:47 10° 83° (E) 3,682 13.1 31.0°
Sets 11:52:09 0° 81° (E) 4,372 13.4 31.1°
